Location: Newark
(12.4436°N, 0.6167°W)
Time: 01:47:08
(UTC+00:00)

Transit 2A - Pass Details

Date: 10 December 2019
Orbit: 601 x 958 km, 66.7° (Epoch: 23 January)

Event Time Altitude Azimuth Distance (km) Brightness Sun altitude
Rises 06:38:25 0° 224° (SW) 3,318 9.1 4.9°
Reaches altitude 10° 06:41:20 10° 237° (WSW) 2,320 8.2 5.5°
Maximum altitude 06:45:36 25° 291° (WNW) 1,453 7.0 6.5°
Drops below altitude 10° 06:49:34 10° 346° (NNW) 2,133 8.0 7.4°
Sets 06:52:09 0° 0° (N) 2,993 8.8 7.9°
